EW4685 Weather Reports


Display with metric or nautical units.
time (UTC)temp
F
wind
direction
speed
MPH
gust
MPH
rain 1hr
in
rain 24hr
in
rain mn
in
humidity
%
barometer
mb
20260503072408 62 316 0.0 0.0 0.00 0.02 0.02 85 1017.3
20260503071905 63 322 0.0 0.0 0.00 0.02 0.02 85 1017.2
20260503071403 63 38 0.0 0.0 0.00 0.02 0.02 84 1017.2
20260503070902 63 31 0.0 0.0 0.00 0.02 0.02 83 1017.2
20260503070622 63 239 0.0 0.0 0.00 0.02 0.02 82 1017.3
20260503054813 67 294 0.0 1.0 0.00 0.02 0.02 72 1017.4
20260503054309 67 294 0.0 1.0 0.00 0.02 0.02 71 1017.3
20260503053807 67 288 0.0 1.0 0.00 0.02 0.02 70 1017.3
20260503053306 68 291 0.0 1.0 0.00 0.02 0.02 69 1017.4
20260503052806 68 308 0.0 0.0 0.00 0.02 0.02 68 1017.4
20260503052305 68 339 0.0 1.0 0.00 0.02 0.02 67 1017.4
20260503052028 69 246 0.0 1.0 0.00 0.02 0.02 68 1017.4
20260503051300 68 318 0.0 4.0 0.00 0.02 0.02 70 1017.5
20260503050801 68 229 1.0 7.0 0.00 0.02 0.02 70 1017.7
20260503050258 68 299 0.0 7.0 0.00 0.02 0.02 68 1017.8
20260503050016 68 281 0.0 4.0 0.00 0.02 0.02 66 1017.7
20260503045259 68 339 1.0 6.0 0.00 0.02 0.02 66 1017.7
20260503044756 68 341 1.0 7.0 0.00 0.02 0.02 66 1017.7
20260503044517 68 55 1.0 7.0 0.00 0.02 0.02 66 1017.9
20260503044011 68 318 0.0 4.0 0.00 0.02 0.02 65 1017.9
20260503043238 68 45 1.0 5.0 0.00 0.02 0.02 65 1017.9
20260503043210 68 286 1.0 7.0 0.00 0.02 0.02 64 1017.9
20260503042226 69 323 1.0 7.0 0.00 0.02 0.02 63 1017.9
20260503041721 69 34 1.0 4.0 0.00 0.02 0.02 63 1017.9
20260503041217 69 21 1.0 5.0 0.00 0.02 0.02 62 1017.9
20260503040930 69 30 2.0 10.0 0.00 0.02 0.02 61 1017.9
20260503040202 70 31 3.0 11.0 0.00 0.02 0.02 60 1017.9
20260503035658 70 348 3.0 11.0 0.00 0.02 0.02 61 1018.0
20260503035150 70 33 2.0 10.0 0.00 0.02 0.02 62 1017.9
20260503034646 69 46 1.0 8.0 0.00 0.02 0.02 64 1017.9
20260503034138 69 40 1.0 6.0 0.00 0.02 0.02 63 1018.1
20260503033633 69 11 1.0 6.0 0.00 0.02 0.02 64 1018.4
20260503033126 69 268 1.0 6.0 0.00 0.02 0.02 62 1018.5
20260503032621 69 266 1.0 9.0 0.00 0.02 0.02 63 1018.5
20260503032116 69 331 1.0 9.0 0.00 0.02 0.02 63 1018.5
20260503031608 69 15 1.0 6.0 0.00 0.02 0.02 64 1018.6
20260503031102 69 83 1.0 6.0 0.00 0.02 0.02 63 1018.7
20260503031042 69 62 0.0 6.0 0.00 0.02 0.02 64 1018.7
20260503030051 69 313 1.0 8.0 0.00 0.02 0.02 63 1018.8
20260503025546 69 9 1.0 8.0 0.00 0.02 0.02 62 1018.8
20260503025038 69 310 2.0 6.0 0.00 0.02 0.02 65 1018.8
20260503024532 68 320 2.0 7.0 0.00 0.02 0.02 64 1019.0
20260503024026 68 51 1.0 7.0 0.00 0.02 0.02 64 1019.1
20260503023520 68 310 1.0 7.0 0.00 0.02 0.02 65 1019.2
20260503023016 68 321 1.0 4.0 0.00 0.02 0.02 65 1019.3
20260503022511 68 13 0.0 4.0 0.00 0.02 0.02 66 1019.4
20260503022010 67 298 0.0 2.0 0.00 0.02 0.02 69 1019.5
20260503021510 67 279 1.0 6.0 0.00 0.02 0.02 71 1019.7
20260503021008 67 282 1.0 12.0 0.00 0.02 0.02 70 1019.8
20260503020507 67 353 1.0 12.0 0.00 0.02 0.02 67 1019.8
20260503020223 67 300 2.0 7.0 0.00 0.02 0.02 68 1019.9
20260503015504 67 29 1.0 5.0 0.00 0.02 0.02 68 1019.9
20260503015004 67 216 0.0 2.0 0.00 0.02 0.02 72 1020.2
20260503014504 66 31 0.0 2.0 0.00 0.02 0.02 73 1020.2
20260503014004 65 31 0.0 3.0 0.00 0.02 0.02 75 1020.3
20260503013504 64 211 0.0 3.0 0.00 0.02 0.02 77 1020.4
20260503013004 63 122 0.0 1.0 0.00 0.02 0.02 78 1020.6
20260503012503 63 43 0.0 2.0 0.00 0.02 0.02 79 1020.6
20260503012002 63 145 0.0 2.0 0.00 0.02 0.02 78 1020.7
20260503011724 63 255 0.0 1.0 0.00 0.02 0.02 81 1020.8
20260503011228 62 302 0.0 1.0 0.00 0.02 0.02 82 1020.9
20260503010504 61 191 0.0 1.0 0.00 0.02 0.02 83 1021.0
20260503010002 61 191 0.0 1.0 0.00 0.02 0.02 86 1021.0
20260503005458 60 216 0.0 1.0 0.00 0.02 0.02 88 1021.1
20260503004950 59 216 0.0 1.0 0.00 0.02 0.02 87 1021.1
20260503004447 59 216 0.0 0.0 0.00 0.02 0.02 87 1021.2
20260503003939 59 216 0.0 1.0 0.00 0.02 0.02 88 1021.2
20260503003433 59 216 0.0 3.0 0.00 0.02 0.02 88 1021.2
20260503002927 59 216 0.0 3.0 0.00 0.02 0.02 88 1021.3
20260503002426 59 185 0.0 2.0 0.00 0.02 0.02 88 1021.3
20260503001926 59 227 0.0 2.0 0.00 0.02 0.02 88 1021.3
20260503001648 59 259 0.0 1.0 0.00 0.02 0.02 87 1021.4
20260503000926 59 301 0.0 1.0 0.00 0.02 0.02 88 1021.4
20260503000424 59 209 0.0 0.0 0.00 0.02 0.02 88 1021.5
20260502235924 59 209 0.0 1.0 0.00 0.02 0.02 88 1021.5
20260502235425 59 209 0.0 2.0 0.00 0.02 0.02 88 1021.5
20260502234924 58 204 0.0 2.0 0.00 0.02 0.02 88 1021.5
20260502234647 58 187 0.0 0.0 0.00 0.02 0.02 88 1021.5
20260502233924 58 187 0.0 0.0 0.00 0.02 0.02 88 1021.5
20260502233652 58 187 0.0 0.0 0.00 0.02 0.02 89 1021.7
20260502232920 58 187 0.0 0.0 0.00 0.02 0.02 89 1021.7
20260502232421 58 187 0.0 0.0 0.00 0.02 0.02 90 1021.8
20260502231920 58 187 0.0 0.0 0.00 0.02 0.02 90 1021.8
20260502231421 58 187 0.0 0.0 0.00 0.02 0.02 91 1021.8
20260502230920 57 187 0.0 0.0 0.00 0.02 0.02 91 1021.8
20260502230420 57 187 0.0 1.0 0.00 0.02 0.02 91 1021.9
20260502225921 57 187 0.0 1.0 0.00 0.02 0.02 91 1021.8
20260502225420 57 187 0.0 0.0 0.00 0.02 0.02 92 1021.8
20260502224922 56 187 0.0 0.0 0.00 0.02 0.02 92 1021.8
20260502224636 56 187 0.0 0.0 0.00 0.02 0.02 92 1021.8
20260502223916 56 187 0.0 0.0 0.00 0.02 0.02 92 1021.7
20260502223637 55 187 0.0 0.0 0.01 0.02 0.02 92 1021.7
20260502222917 55 187 0.0 0.0 0.02 0.02 0.02 92 1021.8
20260502222418 55 187 0.0 0.0 0.02 0.02 0.02 92 1021.7
20260502221916 56 187 0.0 0.0 0.02 0.02 0.02 92 1021.7
20260502221415 56 187 0.0 0.0 0.02 0.02 0.02 92 1021.7
20260502220917 56 187 0.0 0.0 0.02 0.02 0.02 92 1021.5
20260502220418 55 187 0.0 0.0 0.02 0.02 0.02 92 1021.4
20260502215911 55 187 0.0 0.0 0.02 0.02 0.02 92 1021.2
20260502215403 55 187 0.0 0.0 0.02 0.02 0.02 92 1021.1
20260502214857 55 187 0.0 0.0 0.02 0.02 0.02 91 1021.2
20260502214351 55 187 0.0 0.0 0.02 0.02 0.02 91 1021.4
20260502213848 55 187 0.0 0.0 0.02 0.02 0.02 91 1021.2
20260502213339 55 187 0.0 0.0 0.01 0.01 0.01 90 1021.2
20260502212833 55 187 0.0 0.0 0.00 0.00 0.00 90 1021.3
20260502212555 54 187 0.0 0.0 0.00 0.00 0.00 90 1021.4
20260502211822 54 187 0.0 0.0 0.00 0.00 0.00 90 1021.3
20260502211317 54 187 0.0 0.0 0.00 0.00 0.00 90 1021.3
20260502210812 54 187 0.0 0.0 0.00 0.00 0.00 89 1021.3
20260502210304 54 187 0.0 0.0 0.00 0.00 0.00 89 1021.0
20260502205757 54 187 0.0 0.0 0.00 0.00 0.00 88 1020.9
20260502205251 55 187 0.0 0.0 0.00 0.00 0.00 87 1020.9
20260502205013 55 187 0.0 0.0 0.00 0.00 0.00 87 1020.8
20260502204240 56 187 0.0 0.0 0.00 0.00 0.00 87 1020.7
20260502203734 56 86 0.0 1.0 0.00 0.00 0.00 87 1020.6
20260502203228 56 28 0.0 1.0 0.00 0.00 0.00 87 1020.8
20260502202723 56 346 0.0 2.0 0.00 0.00 0.00 87 1020.8
20260502202223 56 57 0.0 3.0 0.00 0.00 0.00 87 1020.6
20260502201711 56 52 0.0 3.0 0.00 0.00 0.00 87 1020.6
20260502201203 55 79 0.0 1.0 0.00 0.00 0.00 87 1020.5
20260502200921 56 93 0.0 1.0 0.00 0.00 0.00 87 1020.6
20260502200151 56 93 0.0 4.0 0.00 0.00 0.00 86 1020.7
20260502195652 56 52 0.0 4.0 0.00 0.00 0.00 86 1020.6
20260502195403 56 71 0.0 3.0 0.00 0.00 0.00 87 1020.7
20260502194634 55 83 0.0 3.0 0.00 0.00 0.00 87 1020.5
20260502194129 55 53 1.0 5.0 0.00 0.00 0.00 88 1020.4
20260502193622 55 57 1.0 5.0 0.00 0.00 0.00 89 1020.4
20260502193118 54 77 0.0 4.0 0.00 0.00 0.00 91 1020.4
20260502192826 53 117 0.0 3.0 0.00 0.00 0.00 93 1020.3
20260502192103 53 89 0.0 2.0 0.00 0.01 0.00 93 1020.4
20260502191557 52 10 0.0 0.0 0.00 0.01 0.00 92 1020.4
20260502191051 52 10 0.0 0.0 0.00 0.01 0.00 92 1020.5
20260502190808 53 10 0.0 0.0 0.00 0.01 0.00 92 1020.4
20260502190041 52 10 0.0 0.0 0.00 0.01 0.00 92 1020.4
20260502185533 53 10 0.0 0.0 0.00 0.01 0.00 92 1020.4
20260502185027 53 10 0.0 0.0 0.00 0.01 0.00 92 1020.4
20260502184521 53 10 0.0 0.0 0.00 0.01 0.00 92 1020.4
20260502184015 53 10 0.0 0.0 0.00 0.01 0.00 92 1020.5
20260502183509 53 10 0.0 0.0 0.00 0.01 0.00 92 1020.4
20260502183004 53 10 0.0 0.0 0.00 0.01 0.00 90 1020.4
20260502182457 53 10 0.0 0.0 0.00 0.01 0.00 89 1020.4
20260502182218 54 10 0.0 0.0 0.00 0.01 0.00 88 1020.3
20260502181446 54 10 0.0 0.0 0.00 0.01 0.00 88 1020.3
20260502180941 55 10 0.0 1.0 0.00 0.01 0.00 88 1020.3
20260502180433 55 10 0.0 1.0 0.00 0.01 0.00 88 1020.3
20260502164116 55 55 0.0 0.0 0.00 0.01 0.00 92 1020.8
20260502163618 55 55 0.0 0.0 0.00 0.01 0.00 92 1020.9
20260502163109 56 55 0.0 0.0 0.00 0.01 0.00 91 1021.0
20260502162347 56 55 0.0 0.0 0.00 0.01 0.00 92 1020.9
20260502161846 56 55 0.0 0.0 0.00 0.01 0.00 92 1020.8
20260502161343 56 55 0.0 0.0 0.00 0.01 0.00 92 1020.9
20260502160843 56 55 0.0 0.0 0.00 0.01 0.00 91 1020.9
20260502160342 56 55 0.0 0.0 0.00 0.01 0.00 91 1020.9
20260502152259 57 55 0.0 0.0 0.00 0.01 0.00 90 1021.3
20260502152018 57 55 0.0 0.0 0.00 0.01 0.00 91 1021.3
20260502151247 57 55 0.0 0.0 0.00 0.01 0.00 90 1021.4
20260502151004 57 55 0.0 0.0 0.00 0.01 0.00 90 1021.5
20260502150236 57 55 0.0 1.0 0.00 0.01 0.00 90 1021.4
20260502130623 58 55 0.0 0.0 0.00 0.01 0.01 85 1022.3
20260502130117 58 55 0.0 0.0 0.00 0.01 0.01 85 1022.3
20260502123548 60 55 0.0 0.0 0.00 0.01 0.01 83 1022.4
20260502123042 60 55 0.0 0.0 0.00 0.01 0.01 82 1022.4
20260502122535 60 55 0.0 0.0 0.00 0.01 0.01 82 1022.4
20260502122029 60 55 0.0 0.0 0.00 0.01 0.01 82 1022.6
20260502121747 60 55 0.0 0.0 0.00 0.01 0.01 82 1022.6
20260502121017 60 55 0.0 0.0 0.00 0.01 0.01 82 1022.5
20260502120510 60 55 0.0 0.0 0.00 0.01 0.01 82 1022.5
20260502115501 61 55 0.0 0.0 0.00 0.01 0.01 81 1022.5
20260502114954 61 55 0.0 0.0 0.00 0.01 0.01 81 1022.5
20260502114447 61 55 0.0 0.0 0.00 0.01 0.01 81 1022.4
20260502113941 61 55 0.0 0.0 0.00 0.01 0.01 81 1022.4
20260502113436 61 55 0.0 0.0 0.00 0.01 0.01 80 1022.5
20260502112936 61 55 0.0 0.0 0.00 0.01 0.01 80 1022.4
20260502112426 61 55 0.0 0.0 0.00 0.01 0.01 79 1022.5
20260502111926 61 55 0.0 0.0 0.00 0.01 0.01 79 1022.5
20260502111908 62 55 0.0 0.0 0.00 0.01 0.01 78 1022.5
20260502110925 62 55 0.0 0.0 0.00 0.01 0.01 77 1022.4
20260502110426 62 55 0.0 0.0 0.00 0.01 0.01 77 1022.2
20260502105924 62 55 0.0 1.0 0.00 0.01 0.01 76 1022.2
20260502105423 63 38 0.0 3.0 0.00 0.01 0.01 76 1022.2
20260502104924 63 71 0.0 3.0 0.00 0.01 0.01 75 1022.2
20260502104647 63 33 0.0 2.0 0.00 0.01 0.01 75 1022.1
20260502104151 63 73 0.0 4.0 0.00 0.01 0.01 75 1022.3
20260502103636 63 99 0.0 4.0 0.00 0.01 0.01 74 1022.3
20260502102919 64 318 0.0 4.0 0.00 0.01 0.01 74 1022.0
20260502102420 64 351 0.0 5.0 0.00 0.01 0.01 74 1022.1
20260502102143 64 339 0.0 5.0 0.00 0.01 0.01 74 1022.1
20260502101418 64 338 1.0 4.0 0.00 0.01 0.01 73 1022.1
20260502100917 64 340 1.0 4.0 0.00 0.01 0.01 73 1022.1
20260502100416 64 17 0.0 4.0 0.00 0.01 0.01 72 1022.1
20260502091408 65 60 3.0 10.0 0.00 0.01 0.01 71 1021.5
20260502091125 65 72 2.0 10.0 0.00 0.01 0.01 71 1021.4
20260502090403 65 76 2.0 9.0 0.00 0.01 0.01 71 1021.5
20260502090353 65 21 3.0 11.0 0.00 0.01 0.01 70 1021.4